Flag for Switzerland Weather past 2 weeks in Köniz, Bern, Switzerland

Now
81 °F

Sunny.


Feels Like: 81 °F
Forecast: 59 / 69 °F
Wind: 7 mph from Southwest

Location: Bern / Belp

Current Time: Aug 31, 2015 at 8:41:27 PM

Latest Report: Aug 31, 2015 at 8:20 PM


Visibility: 10 mi

Pressure: 29.95 "Hg (28.04 "Hg at 579m altitude)

Humidity: 42%

Dew point: 55 °F

Location of KönizLocation

Historic Weather in Köniz — Graph

°F

Köniz temperature yesterday

Maximum temperature yesterday: 88 °F (at 2:20 PM)
Minimum temperature yesterday: 63 °F (at 3:50 AM)
Average temperature yesterday: 74 °F

Past Weeks' High & Low Weather Summary

 TemperatureHumidityPressure
High90 °F (Aug 29, 6:20 PM)100% (Aug 16, 11:20 PM)30.27 "Hg (Aug 16, 11:20 PM)
Low48 °F (Aug 20, 3:20 AM)31% (Aug 31, 4:20 PM)29.74 "Hg (Aug 24, 4:20 AM)
Average65 °F80%30.05 "Hg
* Reported Aug 16 7:20 PM — Aug 31 7:20 PM, Köniz, Weather by CustomWeather, © 2015

Note: Actual official high and low records may vary slightly from our data, if they occured in-between our weather recording intervals... More about our weather records

Advertising

Köniz weather history for previous 24 hours

 ConditionsComfort  
Time TempWeatherWind HumidityBarometerVisibility
7:20 PM
Mon, Aug 31
84 °FSunny.8 mph37%29.98 "Hg10 mi
6:50 PM84 °FSunny.10 mph37%29.95 "Hg10 mi
6:20 PM86 °FPassing clouds.12 mph35%29.95 "HgN/A
5:50 PM86 °FSunny.14 mph35%29.98 "Hg10 mi
5:20 PM88 °FSunny.13 mph33%29.98 "Hg10 mi
4:50 PM88 °FPassing clouds.10 mph35%29.98 "HgN/A
4:20 PM88 °FPassing clouds.10 mph31%29.98 "HgN/A
3:50 PM88 °FPassing clouds.5 mph35%29.98 "HgN/A
3:20 PM86 °FPassing clouds.6 mph38%30.01 "HgN/A
2:50 PM86 °FPassing clouds.6 mph38%30.01 "HgN/A
2:20 PM88 °FPassing clouds.6 mph35%30.01 "HgN/A
1:50 PM86 °FSunny.3 mph46%30.04 "Hg10 mi
1:20 PM84 °FPassing clouds.5 mph45%30.04 "HgN/A
12:50 PM82 °FPassing clouds.3 mph51%30.04 "HgN/A
12:20 PM81 °FSunny.3 mph54%30.07 "Hg10 mi
11:50 AM81 °FSunny.1 mph54%30.07 "Hg10 mi
11:20 AM79 °FSunny.2 mph58%30.07 "Hg10 mi
10:50 AM77 °FSunny.3 mph61%30.07 "Hg10 mi
10:20 AM75 °FSunny.6 mph69%30.07 "Hg10 mi
9:50 AM73 °FPassing clouds.6 mph69%30.07 "HgN/A
9:20 AM72 °FSunny.5 mph78%30.09 "Hg10 mi
8:50 AM70 °FPassing clouds.2 mph83%30.09 "HgN/A
8:20 AM66 °FPassing clouds.2 mph88%30.09 "HgN/A
7:50 AM64 °FScattered clouds.3 mph94%30.09 "HgN/A
7:20 AM61 °FPassing clouds.1 mph100%30.09 "HgN/A
6:50 AM61 °FPassing clouds.2 mph100%30.07 "HgN/A
6:20 AM61 °FPassing clouds.1 mph100%30.07 "HgN/A
5:50 AM63 °FPassing clouds.2 mph100%30.09 "HgN/A
5:20 AM61 °FPassing clouds.1 mph100%30.09 "HgN/A
4:50 AM61 °FPassing clouds.2 mph100%30.09 "HgN/A
4:20 AM61 °FPassing clouds.2 mph100%30.09 "HgN/A
3:50 AM61 °FCool.1 mph100%30.09 "HgN/A
3:20 AM61 °FPassing clouds.1 mph100%30.09 "HgN/A
2:50 AM63 °FPassing clouds.1 mph100%30.07 "HgN/A
2:20 AM63 °FPassing clouds.1 mph94%30.07 "HgN/A
1:50 AM64 °FMild.1 mph94%30.07 "HgN/A
1:20 AM64 °FMild.1 mph94%30.09 "HgN/A
12:50 AM64 °FPassing clouds.1 mph94%30.09 "HgN/A
12:20 AM66 °FPassing clouds.1 mph88%30.09 "HgN/A
11:20 PM
Sun, Aug 30
66 °FMild.2 mph88%30.09 "HgN/A
10:50 PM66 °FPassing clouds.2 mph94%30.12 "HgN/A
10:20 PM68 °FClear.1 mph83%30.12 "Hg10 mi
9:20 PM70 °FClear.2 mph83%30.09 "Hg10 mi
8:50 PM72 °FSunny.1 mph78%30.09 "Hg10 mi
8:20 PM73 °FSunny.1 mph74%30.07 "Hg10 mi
Weather by CustomWeather, © 2015

See weather overviewHow to use our weather pages